CDT,Max TemperatureF,Mean TemperatureF,Min TemperatureF,Max Dew PointF,MeanDew PointF,Min DewpointF,Max Humidity, Mean Humidity, Min Humidity, Max Sea Level PressureIn, Mean Sea Level PressureIn, Min Sea Level PressureIn, Max VisibilityMiles, Mean VisibilityMiles, Min VisibilityMiles, Max Wind SpeedMPH, Mean Wind SpeedMPH, Max Gust SpeedMPH,PrecipitationIn, CloudCover, Events, WindDirDegrees
2012-10-1,71,60,50,48,38,30,72,44,28,29.98,29.94,29.89,10,10,8,26,12,34,0.00,0,,344
2012-10-2,71,56,41,39,31,28,66,41,20,29.99,29.93,29.86,10,10,6,12,8,13,0.00,0,,286
2012-10-3,77,60,44,36,33,30,66,38,18,29.91,29.86,29.79,10,10,9,24,11,31,0.00,0,,176
2012-10-4,59,46,32,39,32,27,81,60,41,30.28,30.14,29.90,10,10,6,31,21,39,0.14,3,,310
2012-10-5,48,37,26,28,22,16,86,58,27,30.28,30.25,30.19,10,10,9,24,12,32,0.00,0,,294
2012-10-6,42,32,23,25,21,18,80,59,39,30.31,30.27,30.25,10,10,10,18,12,24,0.00,4,,324
2012-10-7,55,40,24,25,21,18,80,51,25,30.27,30.12,29.94,10,10,10,23,9,26,0.00,0,,235
2012-10-8,68,54,39,46,31,25,87,47,20,29.94,29.81,29.70,10,10,8,31,17,39,0.00,3,Rain,220
2012-10-9,50,42,33,46,36,25,93,71,37,30.08,29.91,29.79,10,10,5,28,11,37,0.01,4,Rain,299
2012-10-10,59,42,26,28,25,19,86,55,23,30.19,30.08,29.96,10,10,10,23,12,29,0.00,0,,249
2012-10-11,50,41,32,34,28,19,65,49,40,30.37,30.11,29.93,10,10,10,24,17,32,0.00,0,,335
2012-10-12,57,42,28,41,22,10,71,47,17,30.38,30.25,29.99,10,10,7,29,14,33,0.00,3,,119
2012-10-13,71,60,50,61,55,43,100,83,60,29.97,29.75,29.65,10,8,2,23,15,30,0.16,7,Rain,197
2012-10-14,62,53,42,54,41,34,94,67,34,29.95,29.81,29.65,10,8,2,28,17,37,0.00,3,Rain,338
2012-10-15,69,53,37,43,37,32,81,59,31,29.98,29.90,29.75,10,10,10,15,9,23,0.00,0,,184
2012-10-16,75,62,48,48,45,41,93,61,29,29.74,29.52,29.39,10,10,10,15,12,23,0.00,0,,229
2012-10-17,60,52,44,52,40,30,94,63,44,29.50,29.39,29.26,10,10,3,36,17,46,0.03,6,Rain,269
2012-10-18,46,42,39,45,39,30,100,88,53,29.47,29.38,29.30,10,5,2,39,25,50,0.42,7,Rain,297
2012-10-19,42,42,41,41,41,41,100,97,93,29.78,29.66,29.47,10,7,1,24,19,32,0.05,8,Rain,320
2012-10-20,59,49,39,45,42,39,100,86,55,29.82,29.77,29.72,10,8,0,15,7,18,0.00,4,Fog,183
2012-10-21,78,60,42,57,48,41,93,75,42,29.85,29.77,29.73,10,10,10,21,13,25,0.00,1,,151
2012-10-22,64,58,51,64,52,48,100,84,68,29.86,29.82,29.74,10,8,2,17,13,22,0.00,8,,38
2012-10-23,66,60,53,64,58,54,100,94,78,29.78,29.73,29.68,8,4,0,16,9,18,0.00,8,Fog,197
2012-10-24,57,50,42,55,52,43,100,100,93,29.82,29.77,29.74,5,2,0,18,13,29,0.04,8,Fog-Rain,19
2012-10-25,42,38,33,43,33,27,100,88,70,30.28,29.97,29.63,10,7,2,30,22,39,0.51,8,Rain-Snow,333
2012-10-26,37,34,32,30,26,23,87,69,56,30.44,30.38,30.28,10,10,10,17,12,24,0.00,8,,311
2012-10-27,41,34,26,28,23,19,81,64,42,30.38,30.32,30.25,10,10,10,9,6,12,0.00,3,,212
2012-10-28,48,39,30,30,28,25,87,68,46,30.30,30.25,30.20,10,10,10,16,10,21,0.00,4,,157
2012-10-29,53,43,33,30,28,27,81,58,38,30.24,30.19,30.12,10,10,10,24,14,30,0.00,4,,148
2012-10-30,48,39,30,30,27,21,93,64,34,30.14,30.09,30.04,10,10,8,12,8,12,0.00,5,,80
2012-10-31,55,44,32,34,29,23,80,59,35,30.05,30.01,29.96,10,10,9,12,6,13,0.00,0,,305